QPF
0.00 0.00 0.00 0.00 0.00 0.00 0.00 0.00 0.00 0.00 0.00 0.00 0.00 0.00 0.00 0.00 0.00 0.00 0.00 0.04 0.05 0.03 0.00 0.00 0.00 0.04 0.03 0.01 0.01 0.03 0.02 0.02 0.02 0.01 0.00 0.00 0.02 0.00 0.07 0.04 0.01 0.00 0.00 0.00
0.00 0.00 0.00 0.00 0.00 0.00 0.00 0.00 0.00 0.00 0.00 0.00 0.00 0.00 0.00 0.00 0.00 0.00 0.00 0.02 0.05 0.02 0.02 0.01 0.00 0.00 0.00 0.00 0.00 0.00 0.00 0.00 0.00 0.00 0.00 0.00 0.00 0.00 0.05 0.02 0.00 0.00 0.00 0.00
0.00 0.00 0.00 0.00 0.00 0.00 0.00 0.00 0.00 0.00 0.00 0.00 0.00 0.00 0.00 0.00 0.00 0.00 0.00 0.00 0.01 0.00 0.01 0.05 0.03 0.00 0.00 0.00 0.00 0.00 0.00 0.00 0.00 0.00 0.00 0.01 0.06 0.06 0.00 0.00 0.00 0.00 0.06 0.00
0.00 0.00 0.00 0.00 0.00 0.00 0.00 0.00 0.00 0.00 0.00 0.00 0.00 0.00 0.00 0.00 0.00 0.00 0.00 0.00 0.00 0.00 0.01 0.05 0.04 0.01 0.00 0.00 0.00 0.00 0.00 0.00 0.00 0.00 0.03 0.03 0.03 0.01 0.01 0.01 0.00 0.00 0.00 0.00
0.00 0.00 0.00 0.00 0.00 0.00 0.00 0.00 0.00 0.00 0.00 0.00 0.00 0.00 0.00 0.00 0.00 0.00 0.00 0.01 0.00 0.00 0.02 0.04 0.02 0.01 0.01 0.00 0.00 0.00 0.00 0.00 0.00 0.01 0.09 0.10 0.05 0.00 0.00 0.01 0.00 0.00 0.00 0.00
0.00 0.00 0.00 0.00 0.00 0.01 0.00 0.00 0.00 0.00 0.00 0.00 0.00 0.00 0.00 0.00 0.00 0.00 0.00 0.01 0.00 0.00 0.01 0.02 0.02 0.01 0.01 0.01 0.01 0.00 0.00 0.00 0.00 0.02 0.12 0.08 0.02 0.01 0.06 0.01 0.02 0.01 0.00 0.00
0.00 0.00 0.00 0.00 0.00 0.03 0.03 0.01 0.01 0.00 0.00 0.00 0.00 0.00 0.00 0.00 0.00 0.00 0.00 0.00 0.00 0.00 0.00 0.00 0.00 0.00 0.00 0.00 0.05 0.02 0.01 0.17 0.18 0.04 0.03 0.06 0.05 0.00 0.00 0.00 0.00 0.07 0.16 0.11
0.00 0.00 0.00 0.00 0.00 0.01 0.03 0.01 0.02 0.00 0.00 0.00 0.00 0.00 0.00 0.00 0.00 0.00 0.00 0.00 0.00 0.00 0.00 0.00 0.00 0.00 0.00 0.00 0.02 0.06 0.11 0.31 0.10 0.11 0.08 0.02 0.00 0.00 0.00 0.00 0.00 0.01 0.03 0.07
0.00 0.00 0.00 0.00 0.00 0.00 0.00 0.00 0.01 0.00 0.00 0.00 0.00 0.00 0.00 0.00 0.00 0.00 0.00 0.00 0.00 0.00 0.00 0.00 0.00 0.00 0.04 0.03 0.04 0.02 0.05 0.08 0.10 0.07 0.01 0.00 0.02 0.01 0.00 0.00 0.00 0.00 0.00 0.00
0.00 0.00 0.00 0.00 0.00 0.00 0.00 0.00 0.00 0.00 0.00 0.00 0.00 0.00 0.00 0.00 0.00 0.00 0.00 0.00 0.00 0.00 0.00 0.00 0.00 0.00 0.02 0.06 0.09 0.33 0.43 0.20 0.14 0.01 0.00 0.01 0.00 0.00 0.00 0.00 0.00 0.00 0.00 0.00
0.00 0.00 0.00 0.00 0.00 0.00 0.00 0.00 0.00 0.00 0.00 0.00 0.00 0.00 0.00 0.00 0.00 0.00 0.01 0.01 0.00 0.00 0.00 0.00 0.00 0.02 0.03 0.05 0.14 0.59 0.59 0.26 0.05 0.00 0.00 0.00 0.00 0.00 0.00 0.00 0.00 0.00 0.00 0.00
0.00 0.00 0.00 0.00 0.00 0.00 0.00 0.00 0.00 0.00 0.00 0.00 0.00 0.00 0.00 0.00 0.00 0.00 0.00 0.00 0.00 0.00 0.00 0.00 0.00 0.00 0.02 0.01 0.07 0.09 0.03 0.02 0.00 0.00 0.00 0.00 0.00 0.00 0.00 0.00 0.00 0.00 0.00 0.00
0.00 0.00 0.00 0.00 0.00 0.00 0.00 0.00 0.00 0.00 0.00 0.00 0.00 0.00 0.00 0.00 0.00 0.00 0.00 0.00 0.00 0.00 0.00 0.00 0.00 0.00 0.02 0.03 0.05 0.04 0.00 0.00 0.00 0.00 0.00 0.00 0.00 0.00 0.00 0.00 0.00 0.00 0.00 0.00
0.00 0.00 0.00 0.00 0.00 0.00 0.00 0.00 0.00 0.00 0.00 0.00 0.00 0.00 0.00 0.00 0.00 0.00 0.00 0.00 0.00 0.00 0.00 0.00 0.00 0.00 0.00 0.00 0.01 0.00 0.00 0.00 0.00 0.00 0.00 0.00 0.00 0.00 0.00 0.00 0.00 0.00 0.00 0.00
0.00 0.00 0.00 0.00 0.00 0.00 0.00 0.00 0.00 0.00 0.00 0.00 0.00 0.00 0.00 0.00 0.00 0.00 0.00 0.00 0.00 0.00 0.00 0.00 0.00 0.00 0.00 0.00 0.00 0.00 0.00 0.00 0.00 0.00 0.00 0.00 0.00 0.00 0.00 0.00 0.00 0.00 0.00 0.00
0.00 0.00 0.00 0.00 0.00 0.00 0.00 0.00 0.00 0.00 0.00 0.00 0.00 0.00 0.00 0.00 0.00 0.00 0.00 0.00 0.00 0.00 0.00 0.00 0.00 0.00 0.00 0.00 0.00 0.00 0.00 0.00 0.00 0.00 0.00 0.00 0.00 0.00 0.00 0.00 0.00 0.00 0.00 0.00
0.00 0.00 0.00 0.00 0.00 0.00 0.00 0.00 0.00 0.00 0.00 0.00 0.00 0.00 0.00 0.00 0.00 0.00 0.00 0.00 0.00 0.00 0.00 0.00 0.00 0.00 0.00 0.00 0.00 0.00 0.00 0.00 0.00 0.00 0.00 0.00 0.00 0.00 0.00 0.00 0.00 0.00 0.00 0.00
0.00 0.00 0.00 0.00 0.00 0.00 0.00 0.00 0.00 0.00 0.00 0.00 0.00 0.00 0.00 0.00 0.00 0.00 0.00 0.00 0.00 0.00 0.00 0.00 0.00 0.00 0.00 0.00 0.00 0.00 0.00 0.00 0.00 0.00 0.00 0.00 0.00 0.00 0.00 0.00 0.00 0.00 0.00 0.00
0.00 0.00 0.00 0.00 0.00 0.00 0.00 0.00 0.00 0.00 0.00 0.00 0.00 0.00 0.00 0.00 0.00 0.00 0.00 0.00 0.00 0.00 0.00 0.02 0.03 0.03 0.01 0.00 0.00 0.00 0.00 0.00 0.00 0.00 0.00 0.00 0.00 0.00 0.00 0.00 0.00 0.00 0.00 0.00
0.00 0.00 0.00 0.00 0.00 0.00 0.00 0.00 0.00 0.00 0.00 0.00 0.00 0.00 0.00 0.00 0.00 0.00 0.00 0.00 0.00 0.04 0.25 0.32 0.16 0.06 0.03 0.01 0.00 0.00 0.00 0.01 0.00 0.00 0.00 0.00 0.00 0.00 0.00 0.00 0.00 0.00 0.00 0.00
0.00 0.00 0.00 0.00 0.00 0.00 0.00 0.00 0.00 0.00 0.00 0.00 0.01 0.02 0.00 0.00 0.00 0.00 0.00 0.00 0.00 0.04 0.40 0.22 0.12 0.05 0.03 0.01 0.00 0.00 0.02 0.03 0.01 0.00 0.00 0.00 0.00 0.00 0.00 0.00 0.00 0.00 0.00 0.00
0.00 0.00 0.00 0.00 0.00 0.00 0.00 0.00 0.00 0.00 0.00 0.00 0.00 0.00 0.00 0.00 0.00 0.00 0.00 0.00 0.00 0.01 0.02 0.03 0.03 0.03 0.02 0.02 0.01 0.02 0.02 0.05 0.02 0.00 0.00 0.00 0.00 0.00 0.00 0.00 0.00 0.00 0.00 0.00
0.00 0.00 0.00 0.00 0.00 0.00 0.00 0.00 0.00 0.00 0.00 0.00 0.00 0.00 0.00 0.00 0.00 0.00 0.00 0.00 0.01 0.01 0.00 0.01 0.02 0.01 0.01 0.00 0.00 0.01 0.02 0.01 0.00 0.00 0.00 0.00 0.00 0.00 0.00 0.00 0.00 0.00 0.00 0.00
0.00 0.00 0.00 0.00 0.00 0.00 0.00 0.00 0.00 0.00 0.01 0.01 0.01 0.00 0.00 0.00 0.00 0.00 0.00 0.01 0.02 0.01 0.01 0.01 0.01 0.00 0.00 0.00 0.01 0.00 0.00 0.00 0.00 0.00 0.00 0.00 0.00 0.00 0.00 0.00 0.00 0.00 0.00 0.00
0.00 0.00 0.00 0.00 0.00 0.00 0.00 0.00 0.00 0.00 0.00 0.01 0.01 0.03 0.02 0.01 0.00 0.03 0.03 0.03 0.02 0.01 0.01 0.00 0.00 0.00 0.01 0.01 0.00 0.00 0.00 0.00 0.00 0.00 0.00 0.00 0.00 0.00 0.00 0.00 0.00 0.00 0.00 0.00
0.00 0.00 0.00 0.00 0.00 0.00 0.00 0.00 0.00 0.00 0.00 0.00 0.00 0.03 0.09 0.07 0.05 0.06 0.01 0.00 0.00 0.00 0.00 0.00 0.00 0.01 0.00 0.00 0.00 0.00 0.00 0.00 0.00 0.00 0.00 0.00 0.00 0.00 0.00 0.00 0.00 0.00 0.00 0.00
MSLP
1004.99 1005.72 1006.24 1006.45 1006.36 1006.37 1006.27 1006.45 1006.54 1006.14 1006.58 1007.04 1007.95 1008.39 1009.11 1009.92 1010.74 1011.07 1011.59 1011.58 1011.68 1011.44 1011.59 1012.77 1012.68 1013.01 1013.94 1014.05 1013.73 1013.34 1014.09 1014.35 1015.01 1015.27 1015.48 1015.68 1015.44 1015.30 1015.36 1015.02 1015.09 1015.22 1015.28 1015.47
1005.70 1005.93 1005.82 1005.79 1005.74 1006.00 1006.35 1006.56 1006.54 1006.28 1006.48 1006.99 1007.79 1008.24 1008.85 1009.56 1010.08 1010.23 1011.03 1011.72 1011.44 1011.30 1011.38 1012.64 1012.64 1012.88 1013.67 1014.03 1013.81 1013.46 1013.79 1014.32 1014.50 1014.72 1014.86 1014.95 1014.95 1014.97 1014.88 1014.71 1014.67 1014.79 1015.15 1015.32
1005.89 1005.62 1005.36 1005.41 1005.50 1006.13 1006.47 1006.80 1006.86 1006.96 1006.86 1007.47 1007.88 1008.37 1008.44 1009.06 1009.54 1009.78 1010.30 1010.87 1011.07 1010.91 1010.96 1011.55 1012.06 1012.55 1013.08 1013.46 1013.43 1013.68 1013.96 1014.07 1014.31 1014.32 1014.52 1014.75 1014.93 1015.03 1015.11 1014.96 1014.82 1014.93 1015.23 1015.30
1005.55 1005.25 1005.27 1005.25 1005.46 1006.09 1006.18 1006.32 1006.70 1006.93 1007.58 1007.99 1008.18 1009.49 1008.75 1008.48 1008.78 1009.34 1009.73 1010.11 1010.49 1010.85 1010.75 1011.08 1011.63 1012.19 1012.44 1013.07 1012.94 1013.25 1013.51 1013.60 1013.86 1014.14 1014.66 1014.80 1014.90 1015.10 1014.96 1014.76 1014.87 1015.05 1015.13 1015.12
1005.44 1005.21 1005.33 1005.47 1005.36 1005.64 1005.85 1006.20 1006.81 1007.19 1007.95 1009.02 1009.37 1010.01 1009.08 1009.09 1008.62 1008.52 1008.93 1009.43 1009.92 1010.06 1010.37 1010.74 1011.05 1011.87 1012.33 1013.16 1013.11 1013.22 1013.24 1013.39 1013.39 1013.89 1014.42 1014.84 1014.77 1014.77 1014.81 1014.81 1014.95 1015.00 1015.13 1014.94
1005.25 1004.98 1005.09 1005.07 1005.11 1005.47 1005.98 1006.45 1007.52 1008.51 1009.27 1010.78 1009.77 1010.04 1009.43 1009.56 1009.15 1008.58 1008.08 1008.81 1009.28 1009.67 1010.03 1010.49 1010.86 1011.76 1012.46 1012.95 1012.81 1012.81 1013.08 1013.46 1013.62 1013.92 1014.50 1014.66 1014.52 1014.75 1014.97 1015.17 1015.21 1015.22 1015.11 1015.13
1005.66 1005.29 1004.93 1004.85 1005.46 1006.08 1006.82 1008.02 1009.23 1010.34 1011.08 1010.73 1010.03 1009.97 1008.38 1008.30 1008.05 1007.64 1007.79 1008.24 1008.71 1009.24 1009.75 1010.37 1010.99 1011.57 1012.23 1012.58 1012.39 1012.43 1013.08 1013.42 1013.54 1013.88 1014.16 1014.54 1014.65 1014.76 1015.00 1015.23 1015.52 1015.72 1015.41 1015.29
1006.38 1005.79 1005.00 1004.63 1005.09 1005.94 1006.86 1008.43 1009.49 1010.36 1011.41 1010.73 1010.18 1009.26 1007.36 1007.42 1007.71 1007.83 1007.04 1007.22 1008.06 1008.96 1009.43 1010.02 1010.54 1011.32 1012.11 1012.13 1012.50 1012.55 1013.13 1013.68 1013.96 1014.12 1014.45 1014.55 1014.74 1014.83 1015.23 1015.47 1015.75 1015.85 1015.84 1015.66
1006.39 1005.87 1004.94 1004.54 1004.56 1005.41 1006.37 1007.81 1008.49 1009.37 1011.01 1011.15 1010.42 1008.95 1007.20 1007.59 1007.66 1007.62 1007.56 1007.83 1008.37 1008.85 1009.31 1009.63 1010.27 1011.15 1012.08 1012.45 1012.55 1012.89 1013.33 1013.91 1014.10 1014.52 1014.65 1015.02 1015.10 1015.31 1015.56 1015.90 1016.10 1016.21 1016.16 1016.15
1005.74 1005.92 1004.83 1004.33 1004.50 1004.87 1005.36 1006.15 1007.62 1009.28 1010.97 1011.47 1010.81 1009.98 1008.33 1007.43 1007.50 1007.59 1008.32 1008.53 1008.92 1009.28 1009.55 1009.97 1010.41 1010.95 1011.47 1012.16 1012.37 1013.43 1013.82 1013.88 1014.27 1014.57 1014.94 1015.37 1015.59 1015.75 1015.96 1016.27 1016.56 1016.56 1016.57 1016.48
1005.63 1006.11 1005.09 1004.79 1004.77 1004.71 1005.53 1006.30 1007.59 1009.10 1009.99 1010.73 1010.86 1009.74 1007.03 1006.93 1007.02 1007.69 1008.03 1008.44 1009.03 1009.49 1009.86 1010.17 1010.64 1011.15 1011.55 1012.18 1013.00 1013.05 1013.88 1014.59 1014.49 1014.96 1015.35 1015.67 1016.09 1016.30 1016.55 1016.66 1016.65 1016.73 1016.72 1016.71
1004.78 1005.64 1005.98 1005.19 1004.24 1004.38 1004.84 1005.55 1006.64 1008.31 1009.75 1010.06 1009.42 1007.91 1006.30 1006.30 1006.93 1007.49 1007.97 1008.54 1009.26 1009.40 1009.79 1010.37 1010.82 1011.44 1012.08 1012.66 1013.08 1013.34 1014.14 1014.75 1014.70 1015.02 1015.53 1016.07 1016.50 1016.80 1017.02 1017.14 1016.99 1016.85 1016.75 1016.70
1004.28 1005.31 1005.91 1005.33 1004.78 1004.29 1004.40 1004.78 1005.68 1006.52 1007.71 1008.98 1008.98 1007.47 1006.23 1006.68 1007.04 1007.84 1008.05 1008.59 1009.32 1009.97 1010.19 1010.86 1011.23 1011.70 1012.32 1012.89 1013.59 1014.20 1014.59 1014.98 1015.24 1015.24 1015.93 1016.63 1017.00 1017.17 1017.35 1017.47 1017.44 1017.22 1017.11 1017.07
1002.87 1005.26 1005.30 1005.36 1004.57 1004.10 1004.22 1004.23 1004.78 1005.78 1007.42 1007.84 1007.52 1006.85 1006.61 1006.94 1007.14 1007.94 1008.19 1008.79 1009.38 1009.89 1010.11 1010.76 1011.48 1011.71 1012.22 1012.70 1013.56 1014.47 1014.75 1014.90 1015.32 1015.81 1016.56 1017.12 1017.32 1017.43 1017.59 1017.77 1017.78 1017.69 1017.57 1017.40
1003.81 1004.94 1004.93 1004.18 1004.04 1003.85 1003.45 1003.50 1004.22 1005.16 1005.70 1006.35 1005.72 1006.10 1005.02 1005.25 1006.25 1007.18 1008.15 1008.66 1009.19 1009.69 1010.38 1010.92 1011.61 1012.36 1012.75 1013.12 1013.90 1014.38 1014.44 1014.75 1015.32 1015.90 1016.98 1017.49 1017.56 1017.73 1017.82 1017.87 1017.96 1017.96 1017.80 1017.59
1005.10 1005.31 1005.07 1005.02 1004.31 1003.99 1003.68 1003.41 1003.60 1004.25 1004.71 1005.18 1005.13 1005.04 1004.05 1004.80 1006.04 1007.14 1007.77 1008.36 1008.61 1009.31 1010.00 1010.82 1011.65 1012.39 1012.72 1013.17 1013.75 1014.45 1014.57 1014.67 1015.68 1016.06 1017.03 1017.61 1017.86 1017.98 1018.06 1017.99 1017.95 1018.01 1017.88 1017.53
1006.39 1006.41 1006.38 1005.77 1004.73 1004.19 1004.43 1004.44 1004.26 1004.31 1004.71 1004.94 1005.10 1003.69 1003.78 1005.29 1005.89 1006.36 1006.96 1007.54 1007.94 1008.66 1009.53 1010.27 1010.85 1011.79 1012.38 1012.86 1013.42 1014.34 1014.56 1014.51 1015.49 1016.26 1017.05 1017.52 1017.81 1018.16 1018.30 1018.26 1018.14 1017.95 1017.96 1017.77
1007.35 1007.37 1007.11 1007.16 1005.91 1005.84 1005.26 1004.96 1004.68 1004.52 1004.98 1005.00 1004.55 1003.55 1003.12 1003.99 1004.98 1005.69 1005.70 1006.43 1007.31 1007.85 1008.69 1009.80 1010.67 1011.65 1012.41 1012.92 1013.40 1014.07 1014.47 1014.77 1015.43 1015.96 1016.78 1017.25 1017.39 1017.74 1017.97 1018.25 1018.35 1018.22 1017.98 1017.80
1007.97 1007.96 1008.57 1008.30 1007.70 1006.95 1006.00 1005.89 1005.76 1005.61 1005.25 1004.91 1004.41 1003.91 1003.74 1004.40 1005.09 1005.54 1006.23 1006.97 1007.31 1008.18 1009.27 1010.48 1011.80 1012.88 1012.80 1012.99 1013.36 1013.92 1014.36 1014.77 1015.36 1015.73 1016.41 1016.95 1017.26 1017.59 1017.77 1017.90 1018.22 1018.15 1018.12 1018.00
1008.30 1008.12 1008.61 1009.30 1008.97 1008.02 1006.89 1006.17 1006.06 1006.05 1005.64 1005.16 1004.77 1004.86 1004.78 1004.85 1005.56 1005.95 1006.15 1006.51 1007.42 1008.31 1009.54 1010.61 1011.11 1012.86 1013.80 1013.76 1013.81 1014.15 1014.90 1015.50 1015.80 1016.07 1016.63 1016.89 1017.13 1017.55 1017.78 1017.83 1017.92 1018.03 1018.17 1018.32
1009.93 1009.83 1009.92 1009.80 1009.15 1008.20 1006.65 1006.25 1005.90 1006.55 1006.79 1005.71 1005.72 1005.65 1005.66 1005.84 1006.39 1006.31 1006.16 1006.43 1007.25 1007.84 1008.21 1008.31 1008.61 1011.59 1012.60 1013.74 1013.94 1014.15 1014.75 1015.33 1015.32 1015.73 1016.30 1016.54 1016.96 1017.08 1017.37 1017.61 1017.78 1017.93 1018.18 1018.20
1010.39 1010.32 1010.38 1009.95 1008.83 1008.02 1006.95 1006.45 1006.24 1006.81 1006.52 1005.86 1005.75 1005.95 1005.80 1006.24 1005.96 1005.96 1006.48 1006.69 1007.37 1007.57 1008.15 1008.84 1010.13 1011.40 1012.60 1013.42 1014.19 1014.61 1015.13 1015.33 1015.51 1016.18 1016.59 1016.77 1016.91 1016.79 1016.80 1017.26 1017.63 1017.70 1018.00 1018.14
1010.25 1009.76 1009.61 1009.44 1008.08 1006.99 1006.44 1006.60 1006.46 1006.38 1006.65 1006.37 1006.13 1006.33 1006.89 1007.36 1007.29 1007.66 1007.94 1007.89 1007.91 1008.55 1009.49 1009.95 1010.95 1012.15 1012.94 1013.22 1013.77 1014.61 1014.58 1014.94 1015.38 1015.89 1016.51 1016.70 1016.67 1016.76 1016.75 1017.18 1017.35 1017.59 1017.75 1017.93
1009.51 1009.03 1008.99 1008.77 1007.67 1007.16 1006.96 1007.02 1006.20 1005.79 1005.83 1005.88 1005.55 1005.80 1006.14 1007.00 1008.01 1008.95 1008.97 1009.08 1009.30 1009.67 1010.28 1010.94 1011.72 1012.33 1012.93 1013.04 1013.52 1013.69 1014.36 1014.85 1015.43 1015.96 1016.53 1016.32 1016.51 1016.59 1016.77 1016.87 1016.82 1017.20 1017.40 1017.56
1009.10 1008.78 1008.56 1008.41 1007.42 1007.37 1006.99 1006.97 1006.17 1005.51 1004.99 1004.93 1005.23 1005.66 1005.88 1006.69 1006.97 1009.55 1009.97 1009.94 1009.78 1010.15 1010.53 1011.09 1011.70 1012.18 1012.67 1013.10 1013.69 1014.04 1014.42 1014.69 1015.51 1015.72 1016.06 1016.18 1016.29 1016.35 1016.48 1016.43 1016.31 1016.59 1016.45 1016.67
1008.32 1007.87 1008.05 1007.47 1006.85 1006.72 1006.15 1005.84 1005.77 1005.77 1004.46 1004.59 1005.15 1005.77 1006.72 1007.28 1008.52 1009.47 1009.71 1010.16 1010.59 1010.96 1011.36 1011.87 1012.20 1012.79 1013.25 1013.52 1013.95 1014.26 1014.39 1014.60 1015.22 1015.56 1015.92 1016.19 1016.12 1016.11 1016.13 1016.12 1016.05 1015.77 1015.61 1015.77
Thickness
5826 5804 5791 5806 5813 5816 5814 5811 5803 5820 5826 5815 5801 5803 5799 5798 5793 5790 5778 5779 5780 5782 5786 5773 5774 5769 5757 5759 5764 5770 5766 5766 5764 5761 5760 5761 5763 5767 5768 5771 5770 5768 5769 5768
5803 5792 5815 5825 5829 5820 5814 5806 5802 5818 5826 5820 5803 5800 5806 5800 5799 5800 5789 5780 5786 5788 5785 5770 5772 5773 5761 5758 5763 5769 5769 5767 5766 5766 5767 5767 5769 5772 5773 5774 5774 5773 5772 5771
5792 5811 5827 5828 5826 5810 5805 5796 5799 5801 5814 5812 5805 5793 5803 5804 5803 5804 5804 5797 5792 5791 5789 5781 5775 5771 5767 5760 5765 5765 5765 5767 5768 5770 5772 5771 5771 5771 5771 5772 5773 5773 5771 5772
5805 5823 5818 5820 5818 5808 5798 5815 5813 5810 5796 5770 5805 5753 5791 5802 5804 5805 5804 5800 5796 5793 5794 5788 5779 5774 5773 5765 5771 5771 5772 5774 5772 5771 5768 5770 5766 5765 5769 5773 5771 5770 5769 5771
5799 5813 5810 5808 5814 5820 5807 5823 5814 5814 5794 5778 5782 5761 5777 5791 5801 5810 5810 5805 5802 5803 5797 5789 5784 5780 5779 5768 5771 5772 5774 5775 5777 5774 5771 5767 5766 5769 5769 5769 5766 5766 5765 5766
5809 5829 5819 5815 5825 5824 5825 5815 5799 5785 5771 5742 5774 5768 5772 5770 5786 5807 5819 5813 5809 5805 5800 5795 5791 5785 5779 5773 5777 5777 5775 5773 5775 5775 5770 5767 5769 5767 5766 5764 5761 5759 5761 5762
5793 5803 5821 5827 5810 5812 5799 5775 5745 5746 5738 5743 5773 5768 5788 5799 5806 5815 5817 5817 5815 5810 5803 5793 5788 5783 5778 5776 5781 5782 5777 5773 5774 5774 5771 5767 5767 5767 5765 5762 5757 5753 5755 5754
5758 5756 5802 5826 5813 5794 5787 5769 5731 5738 5730 5754 5774 5766 5797 5817 5815 5815 5828 5829 5821 5810 5807 5799 5794 5788 5779 5782 5781 5781 5777 5762 5767 5768 5766 5766 5767 5766 5762 5758 5754 5752 5751 5751
5752 5763 5811 5822 5827 5815 5796 5769 5787 5752 5748 5745 5755 5788 5817 5813 5810 5815 5815 5819 5814 5813 5807 5804 5799 5788 5780 5780 5780 5776 5772 5767 5768 5765 5764 5762 5762 5761 5758 5755 5752 5750 5750 5750
5786 5763 5800 5816 5820 5820 5808 5813 5776 5755 5736 5738 5750 5762 5770 5806 5810 5816 5804 5803 5802 5805 5803 5798 5795 5791 5788 5783 5782 5769 5763 5767 5765 5763 5761 5758 5756 5755 5753 5750 5747 5748 5746 5746
5784 5773 5789 5806 5794 5797 5791 5783 5778 5766 5752 5730 5725 5749 5804 5811 5816 5808 5808 5802 5797 5798 5795 5796 5794 5791 5787 5784 5776 5773 5760 5760 5764 5760 5757 5754 5750 5749 5745 5744 5745 5744 5744 5744
5794 5771 5757 5776 5811 5818 5811 5797 5787 5759 5752 5745 5751 5764 5826 5825 5820 5818 5812 5806 5801 5800 5798 5795 5791 5788 5783 5777 5774 5772 5766 5761 5764 5760 5754 5749 5745 5742 5740 5738 5739 5740 5741 5741
5797 5767 5749 5764 5785 5807 5805 5803 5790 5779 5766 5746 5748 5766 5818 5816 5817 5816 5810 5806 5801 5794 5794 5789 5786 5783 5778 5773 5766 5763 5760 5757 5757 5757 5750 5742 5737 5736 5734 5732 5732 5733 5734 5733
5816 5766 5771 5762 5773 5795 5797 5808 5801 5784 5753 5756 5768 5791 5802 5802 5806 5806 5806 5803 5798 5794 5794 5789 5781 5782 5778 5775 5767 5758 5757 5756 5753 5748 5740 5733 5731 5729 5727 5725 5724 5724 5724 5725
5801 5774 5776 5789 5797 5797 5803 5806 5802 5787 5784 5775 5795 5788 5815 5819 5810 5809 5803 5801 5797 5792 5788 5785 5779 5774 5772 5769 5762 5758 5759 5757 5751 5744 5731 5725 5724 5722 5720 5718 5716 5715 5716 5718
5784 5772 5785 5788 5795 5795 5793 5804 5807 5805 5798 5788 5797 5794 5825 5819 5811 5804 5804 5803 5800 5794 5790 5785 5779 5773 5771 5768 5762 5757 5757 5756 5743 5739 5726 5718 5714 5712 5711 5711 5710 5709 5710 5713
5773 5764 5761 5770 5779 5782 5765 5775 5784 5794 5793 5793 5780 5813 5820 5806 5809 5809 5805 5807 5804 5799 5792 5786 5782 5775 5771 5768 5763 5753 5753 5754 5742 5732 5722 5713 5709 5704 5701 5702 5703 5704 5703 5704
5763 5755 5747 5748 5762 5736 5765 5785 5791 5789 5790 5792 5799 5815 5829 5823 5818 5814 5821 5814 5807 5805 5799 5789 5783 5775 5767 5763 5759 5751 5749 5746 5737 5729 5719 5712 5709 5704 5699 5695 5693 5694 5697 5697
5752 5749 5732 5734 5726 5747 5760 5765 5768 5771 5780 5795 5797 5813 5817 5817 5815 5814 5813 5810 5806 5798 5788 5776 5765 5757 5758 5757 5754 5748 5744 5741 5732 5727 5717 5710 5705 5701 5698 5695 5690 5688 5688 5689
5749 5746 5741 5724 5726 5718 5743 5766 5774 5775 5753 5792 5797 5797 5804 5808 5793 5801 5810 5811 5800 5789 5777 5761 5750 5746 5742 5743 5742 5739 5731 5723 5720 5715 5707 5703 5699 5693 5690 5689 5686 5683 5681 5678
5715 5719 5718 5712 5717 5728 5761 5765 5775 5748 5748 5782 5785 5786 5793 5792 5789 5798 5805 5806 5798 5792 5788 5786 5782 5756 5748 5736 5733 5732 5725 5718 5718 5713 5704 5700 5693 5690 5685 5681 5679 5676 5673 5672
5709 5708 5708 5707 5713 5719 5757 5765 5756 5760 5766 5777 5784 5785 5787 5782 5791 5800 5797 5794 5788 5789 5780 5773 5762 5751 5741 5733 5724 5719 5713 5711 5707 5699 5692 5688 5684 5684 5684 5678 5672 5671 5667 5666
5699 5711 5710 5717 5726 5750 5763 5759 5767 5768 5763 5769 5773 5773 5771 5770 5772 5771 5771 5776 5776 5771 5763 5758 5748 5736 5727 5725 5719 5711 5710 5706 5701 5695 5685 5682 5679 5676 5675 5670 5668 5664 5662 5660
5714 5723 5716 5723 5740 5745 5748 5750 5764 5770 5769 5772 5778 5776 5777 5769 5763 5753 5754 5756 5757 5755 5748 5742 5734 5729 5721 5721 5716 5713 5703 5698 5692 5683 5675 5676 5672 5669 5666 5664 5664 5659 5656 5653
5710 5718 5719 5717 5733 5737 5740 5743 5753 5763 5771 5779 5778 5775 5774 5766 5764 5739 5738 5742 5745 5742 5739 5735 5727 5722 5716 5708 5701 5698 5694 5690 5679 5676 5671 5668 5665 5662 5659 5659 5659 5656 5656 5653
5713 5716 5711 5715 5733 5731 5740 5748 5748 5751 5773 5776 5772 5760 5752 5751 5739 5732 5731 5734 5732 5726 5721 5715 5711 5704 5698 5694 5689 5685 5681 5677 5669 5667 5662 5657 5657 5655 5653 5652 5652 5653 5654 5651